User: anonymous   Login
Location: Unspecified
(0.0000°N, 0.0000°E)
Time: 08:07:39
(UTC+00:00)
Language:

KAGAYAKI - Orbit

View from above orbital plane
View from above orbital plane
View from above satellite
View from above satellite

Ground track
Ground track

The orbit data is extracted from the following two-line orbital elements,

1 33495U 09002D   19345.48959883 +.00000002 +00000-0 +88835-5 0  9990
2 33495 098.3802 176.4765 0008927 042.3814 317.8081 14.72150009583890
Epoch (UTC): 11 December 2019 11:45:01
Eccentricity: 0.0008927
inclination: 98.3802°
perigee height: 648 km
apogee height: 660 km
right ascension of ascending node: 176.4765°
argument of perigee: 42.3814°
revolutions per day: 14.72150009
mean anomaly at epoch: 317.8081°
orbit number at epoch: 58389

The dashed part of the orbit path shows where the satellite is in the earth's shadow,  

DLR